Location: ??????
(41.3164°N, 22.6615°E)
Time: 21:18:09
(UTC+00:00)

CUBESAT XI-V - Pass Details

Date: 06 July 2022
Orbit: 668 x 690 km, 98.1° (Epoch: 11 August)

Event Time Altitude Azimuth Distance (km) Brightness Sun altitude
Exits shadow 01:02:25 28° 246° (WSW) 1,250 ? -17.3°
Maximum altitude 01:03:09 30° 264° (W) 1,210 ? -17.3°
Drops below altitude 10° 01:07:10 10° 325° (NW) 2,104 ? -16.8°
Sets 01:09:39 0° 336° (NNW) 3,021 ? -16.5°
